Weather WX

World > North America > United States > Illinois

Lodge, Illinois Regional Weather

Lat: 40.10N, Lon: 88.55W
Wx Zone: ILZ044
Warning FLW WEATHER ALERT - FLASH FLOOD WATCH (More Info. Click Here) Warning
Feedback

Lodge, IL Regional Weather

Expires:201906161200;;156990
ASUS43 KLOT 161104
RWRIL 

ILLINOIS REGIONAL WEATHER ROUNDUP
NATIONAL WEATHER SERVICE CHICAGO/ROMEOVILLE IL
600 AM CDT SUN JUN 16 2019

NOTE: "FAIR" INDICATES FEW OR NO CLOUDS BELOW 12,000 FEET WITH NO
SIGNIFICANT WEATHER AND/OR OBSTRUCTIONS TO VISIBILITY.

* THESE STATIONS ARE NOT UNDER NWS QUALITY CONTROL. THEY ALSO MAY NOT
  REPORT WEATHER SUCH AS PRECIPITATION OR FOG.


ILZ028>032-037-038-041>044-048-051>054-059>061-161200-
CENTRAL ILLINOIS
  
CITY           SKY/WX    TMP DP  RH WIND       PRES   REMARKS
PONTIAC        FAIR      64  64  98 CALM      29.79R FOG              
BLOOMINGTON    CLOUDY    64  63  96 SW8       29.81R                  
DECATUR        FAIR      65  62  90 SW7       29.81R                  
PEORIA         CLOUDY    66  64  93 SW5       29.79R                  
LACON*         CLOUDY    65  64  96 SW6       29.78R                  
LINCOLN*       FAIR      65  64  98 CALM      29.79S                  
SPRINGFIELD    CLOUDY    65  64  97 W3        29.81R                  
TAYLORVILLE    NOT AVBL                                               
$$


SKY/WX - Weather  TMP - Temperature  DP - Dew Point  RH - Relative Humidity
WIND - Wind Direction/Speed PRES - Barometric Pressure VSB - Visibility
WCI - Wind Chill Index E13G22 Wind - East Wind 13 mph/Gusts of 22 mph